Time,TemperatureF,DewpointF,PressureIn,WindDirection,WindDirectionDegrees,WindSpeedMPH,WindSpeedGustMPH,Humidity,HourlyPrecipIn,Conditions,Clouds,dailyrainin,SoftwareType,DateUTC
2013-03-14 00:02:00,23.0,16.0,-100.00,South,170,3.0,5.0,73,0.00,,,0.00,,2013-03-14 05:02:00,
2013-03-14 00:12:00,23.0,16.0,-100.00,South,170,3.0,6.0,73,0.00,,,0.00,,2013-03-14 05:12:00,
2013-03-14 00:22:00,23.0,16.0,-100.00,South,170,4.0,6.0,72,0.00,,,0.00,,2013-03-14 05:22:00,
2013-03-14 00:33:00,23.0,16.0,-100.00,South,170,4.0,7.0,73,0.00,,,0.00,,2013-03-14 05:33:00,
2013-03-14 00:42:00,23.0,16.0,-100.00,South,170,5.0,7.0,72,0.00,,,0.00,,2013-03-14 05:42:00,
2013-03-14 00:52:00,23.0,16.0,-100.00,SSE,160,3.0,6.0,72,0.00,,,0.00,,2013-03-14 05:52:00,
2013-03-14 01:02:00,23.0,16.0,-100.00,SSE,155,3.0,6.0,73,0.00,,,0.00,,2013-03-14 06:02:00,
2013-03-14 01:12:00,23.0,16.0,-100.00,South,175,2.0,6.0,73,0.00,,,0.00,,2013-03-14 06:12:00,
2013-03-14 01:22:00,24.0,16.0,-100.00,SSE,150,3.0,7.0,73,0.00,,,0.00,,2013-03-14 06:22:00,
2013-03-14 01:32:00,24.0,16.0,-100.00,South,170,4.0,7.0,73,0.00,,,0.00,,2013-03-14 06:32:00,
2013-03-14 01:42:00,24.0,18.0,-100.00,SSE,165,1.0,6.0,73,0.00,,,0.00,,2013-03-14 06:42:00,
2013-03-14 01:52:00,24.0,18.0,-100.00,South,175,4.0,6.0,74,0.00,,,0.00,,2013-03-14 06:52:00,
2013-03-14 02:02:00,24.0,18.0,-100.00,South,185,4.0,6.0,74,0.00,,,0.00,,2013-03-14 07:02:00,
2013-03-14 02:12:00,24.0,18.0,-100.00,South,170,2.0,7.0,74,0.00,,,0.00,,2013-03-14 07:12:00,
2013-03-14 02:22:00,24.0,18.0,-100.00,SSE,160,4.0,7.0,75,0.00,,,0.00,,2013-03-14 07:22:00,
2013-03-14 02:32:00,24.0,18.0,-100.00,SE,135,2.0,6.0,75,0.00,,,0.00,,2013-03-14 07:32:00,
2013-03-14 02:42:00,24.0,18.0,-100.00,SE,125,2.0,5.0,77,0.00,,,0.00,,2013-03-14 07:42:00,
2013-03-14 02:52:00,23.0,19.0,-100.00,South,170,4.0,6.0,84,0.00,,,0.00,,2013-03-14 07:52:00,
2013-03-14 03:02:00,23.0,19.0,-100.00,South,185,4.0,6.0,89,0.00,,,0.00,,2013-03-14 08:02:00,
2013-03-14 03:12:00,23.0,21.0,-100.00,SSE,165,5.0,7.0,91,0.00,,,0.00,,2013-03-14 08:12:00,
2013-03-14 03:21:00,23.0,21.0,-100.00,ESE,110,4.0,9.0,91,0.00,,,0.00,,2013-03-14 08:21:00,
2013-03-14 03:32:00,23.0,21.0,-100.00,East,90,1.0,6.0,92,0.00,,,0.00,,2013-03-14 08:32:00,
2013-03-14 03:41:00,23.0,21.0,-100.00,SSW,195,6.0,8.0,92,0.00,,,0.00,,2013-03-14 08:41:00,
2013-03-14 03:51:00,23.0,21.0,-100.00,SE,125,1.0,6.0,92,0.00,,,0.00,,2013-03-14 08:51:00,
2013-03-14 04:01:00,23.0,21.0,-100.00,SE,130,3.0,6.0,92,0.00,,,0.00,,2013-03-14 09:01:00,
2013-03-14 04:12:00,23.0,21.0,-100.00,SE,135,1.0,7.0,92,0.00,,,0.00,,2013-03-14 09:12:00,
2013-03-14 04:22:00,23.0,21.0,-100.00,ESE,110,2.0,6.0,92,0.00,,,0.00,,2013-03-14 09:22:00,
2013-03-14 04:32:00,23.0,21.0,-100.00,ESE,120,1.0,6.0,92,0.00,,,0.00,,2013-03-14 09:32:00,
2013-03-14 04:42:00,23.0,21.0,-100.00,ESE,105,2.0,7.0,92,0.00,,,0.00,,2013-03-14 09:42:00,
2013-03-14 04:52:00,23.0,21.0,-100.00,SE,135,3.0,7.0,91,0.00,,,0.00,,2013-03-14 09:52:00,
2013-03-14 05:02:00,23.0,21.0,-100.00,ESE,110,2.0,7.0,91,0.00,,,0.00,,2013-03-14 10:02:00,
2013-03-14 05:12:00,23.0,21.0,-100.00,ESE,120,2.0,7.0,91,0.00,,,0.00,,2013-03-14 10:12:00,
2013-03-14 05:22:00,23.0,21.0,-100.00,SE,130,3.0,7.0,92,0.00,,,0.00,,2013-03-14 10:22:00,
2013-03-14 05:32:00,23.0,21.0,-100.00,SSE,155,2.0,7.0,92,0.00,,,0.00,,2013-03-14 10:32:00,
2013-03-14 05:42:00,23.0,21.0,-100.00,SSE,150,2.0,6.0,92,0.00,,,0.00,,2013-03-14 10:42:00,
2013-03-14 05:52:00,23.0,21.0,-100.00,SSE,150,3.0,7.0,92,0.00,,,0.00,,2013-03-14 10:52:00,
2013-03-14 06:02:00,23.0,21.0,-100.00,SSE,165,2.0,7.0,92,0.00,,,0.00,,2013-03-14 11:02:00,
2013-03-14 06:12:00,23.0,21.0,-100.00,SSE,155,4.0,9.0,92,0.00,,,0.00,,2013-03-14 11:12:00,
2013-03-14 06:22:00,23.0,21.0,-100.00,ESE,120,2.0,8.0,92,0.00,,,0.00,,2013-03-14 11:22:00,
2013-03-14 06:33:00,23.0,21.0,-100.00,ESE,120,3.0,7.0,92,0.00,,,0.00,,2013-03-14 11:33:00,
2013-03-14 06:42:00,24.0,21.0,-100.00,SSE,150,4.0,7.0,91,0.00,,,0.00,,2013-03-14 11:42:00,
2013-03-14 06:52:00,24.0,21.0,-100.00,East,100,1.0,7.0,91,0.00,,,0.00,,2013-03-14 11:52:00,
2013-03-14 07:02:00,24.0,21.0,-100.00,East,95,3.0,6.0,91,0.00,,,0.00,,2013-03-14 12:02:00,
2013-03-14 07:12:00,24.0,21.0,-100.00,SE,145,2.0,7.0,91,0.00,,,0.00,,2013-03-14 12:12:00,
2013-03-14 07:22:00,24.0,21.0,-100.00,ESE,120,3.0,6.0,91,0.00,,,0.00,,2013-03-14 12:22:00,
2013-03-14 07:33:00,24.0,21.0,-100.00,South,170,2.0,5.0,91,0.00,,,0.00,,2013-03-14 12:33:00,
2013-03-14 07:42:00,24.0,21.0,-100.00,ESE,105,2.0,5.0,91,0.00,,,0.00,,2013-03-14 12:42:00,
2013-03-14 07:52:00,24.0,21.0,-100.00,SSE,150,2.0,6.0,91,0.00,,,0.00,,2013-03-14 12:52:00,
2013-03-14 08:02:00,24.0,21.0,-100.00,SSE,150,1.0,5.0,91,0.00,,,0.00,,2013-03-14 13:02:00,
2013-03-14 08:12:00,24.0,21.0,-100.00,SE,140,2.0,4.0,90,0.00,,,0.00,,2013-03-14 13:12:00,
2013-03-14 08:22:00,25.0,23.0,-100.00,East,90,1.0,3.0,90,0.00,,,0.00,,2013-03-14 13:22:00,
2013-03-14 08:32:00,25.0,23.0,-100.00,ENE,75,1.0,4.0,90,0.00,,,0.00,,2013-03-14 13:32:00,
2013-03-14 08:42:00,25.0,23.0,-100.00,East,100,2.0,4.0,90,0.00,,,0.00,,2013-03-14 13:42:00,
2013-03-14 08:52:00,24.0,21.0,-100.00,ESE,110,1.0,4.0,89,0.00,,,0.00,,2013-03-14 13:52:00,
2013-03-14 09:02:00,25.0,23.0,-100.00,SE,140,3.0,5.0,89,0.00,,,0.00,,2013-03-14 14:02:00,
2013-03-14 09:12:00,25.0,23.0,-100.00,ESE,115,2.0,5.0,89,0.00,,,0.00,,2013-03-14 14:12:00,
2013-03-14 09:22:00,25.0,23.0,-100.00,East,80,3.0,6.0,88,0.00,,,0.00,,2013-03-14 14:22:00,
2013-03-14 09:32:00,26.0,23.0,-100.00,ESE,120,2.0,4.0,87,0.00,,,0.00,,2013-03-14 14:32:00,
2013-03-14 09:42:00,26.0,23.0,-100.00,ESE,110,2.0,5.0,87,0.00,,,0.00,,2013-03-14 14:42:00,
2013-03-14 09:52:00,27.0,23.0,-100.00,ESE,115,2.0,7.0,86,0.00,,,0.00,,2013-03-14 14:52:00,
2013-03-14 10:02:00,27.0,23.0,-100.00,SE,140,1.0,7.0,84,0.00,,,0.00,,2013-03-14 15:02:00,
2013-03-14 10:12:00,28.0,23.0,-100.00,SE,140,2.0,6.0,83,0.00,,,0.00,,2013-03-14 15:12:00,
2013-03-14 10:22:00,28.0,23.0,-100.00,SE,135,2.0,6.0,82,0.00,,,0.00,,2013-03-14 15:22:00,
2013-03-14 10:32:00,28.0,23.0,-100.00,ESE,105,3.0,6.0,80,0.00,,,0.00,,2013-03-14 15:32:00,
2013-03-14 10:42:00,29.0,23.0,-100.00,ESE,105,2.0,6.0,80,0.00,,,0.00,,2013-03-14 15:42:00,
2013-03-14 10:52:00,29.0,23.0,-100.00,East,80,3.0,6.0,79,0.00,,,0.00,,2013-03-14 15:52:00,
2013-03-14 11:03:00,29.0,23.0,-100.00,South,175,4.0,6.0,78,0.00,,,0.00,,2013-03-14 16:03:00,
2013-03-14 11:12:00,29.0,23.0,-100.00,SSE,165,4.0,6.0,80,0.00,,,0.00,,2013-03-14 16:12:00,
2013-03-14 11:22:00,30.0,23.0,-100.00,South,180,5.0,7.0,76,0.00,,,0.00,,2013-03-14 16:22:00,
2013-03-14 11:32:00,31.0,25.0,-100.00,SSW,195,4.0,7.0,76,0.00,,,0.00,,2013-03-14 16:32:00,
2013-03-14 11:42:00,31.0,25.0,-100.00,SSE,150,5.0,6.0,74,0.00,,,0.00,,2013-03-14 16:42:00,
2013-03-14 11:52:00,32.0,25.0,-100.00,South,185,3.0,5.0,71,0.00,,,0.00,,2013-03-14 16:52:00,
2013-03-14 12:02:00,34.0,25.0,-100.00,East,95,0.0,6.0,67,0.00,,,0.00,,2013-03-14 17:02:00,
2013-03-14 12:12:00,35.0,23.0,-100.00,WSW,255,1.0,3.0,62,0.00,,,0.00,,2013-03-14 17:12:00,
2013-03-14 12:23:00,35.0,25.0,-100.00,South,170,1.0,2.0,65,0.00,,,0.00,,2013-03-14 17:23:00,
2013-03-14 12:32:00,34.0,25.0,-100.00,NNW,330,1.0,3.0,68,0.00,,,0.00,,2013-03-14 17:32:00,
2013-03-14 12:42:00,37.0,25.0,-100.00,NW,310,0.0,3.0,62,0.00,,,0.00,,2013-03-14 17:42:00,
2013-03-14 12:52:00,33.0,23.0,-100.00,East,80,4.0,4.0,66,0.00,,,0.00,,2013-03-14 17:52:00,
2013-03-14 13:02:00,34.0,23.0,-100.00,ENE,65,2.0,5.0,66,0.00,,,0.00,,2013-03-14 18:02:00,
2013-03-14 13:12:00,35.0,23.0,-100.00,East,80,2.0,4.0,64,0.00,,,0.00,,2013-03-14 18:12:00,
2013-03-14 13:22:00,33.0,23.0,-100.00,ENE,60,3.0,4.0,66,0.00,,,0.00,,2013-03-14 18:22:00,
2013-03-14 13:32:00,35.0,23.0,-100.00,ENE,65,2.0,4.0,63,0.00,,,0.00,,2013-03-14 18:32:00,
2013-03-14 13:42:00,34.0,23.0,-100.00,ENE,65,3.0,4.0,65,0.00,,,0.00,,2013-03-14 18:42:00,
2013-03-14 13:52:00,35.0,25.0,-100.00,ENE,65,3.0,4.0,65,0.00,,,0.00,,2013-03-14 18:52:00,
2013-03-14 14:02:00,35.0,23.0,-100.00,ENE,60,1.0,4.0,62,0.00,,,0.00,,2013-03-14 19:02:00,
2013-03-14 14:12:00,35.0,23.0,-100.00,NE,40,2.0,4.0,63,0.00,,,0.00,,2013-03-14 19:12:00,
2013-03-14 14:22:00,36.0,23.0,-100.00,ENE,60,2.0,4.0,61,0.00,,,0.00,,2013-03-14 19:22:00,
2013-03-14 14:32:00,36.0,25.0,-100.00,ENE,60,2.0,4.0,62,0.00,,,0.00,,2013-03-14 19:32:00,
2013-03-14 14:42:00,36.0,25.0,-100.00,East,80,3.0,4.0,62,0.00,,,0.00,,2013-03-14 19:42:00,
2013-03-14 14:52:00,36.0,25.0,-100.00,East,80,3.0,5.0,62,0.00,,,0.00,,2013-03-14 19:52:00,
2013-03-14 15:02:00,36.0,25.0,-100.00,ENE,65,4.0,5.0,63,0.00,,,0.00,,2013-03-14 20:02:00,
2013-03-14 15:11:00,35.0,23.0,-100.00,NE,45,4.0,6.0,62,0.00,,,0.00,,2013-03-14 20:11:00,
2013-03-14 15:22:00,38.0,25.0,-100.00,WNW,290,1.0,4.0,56,0.00,,,0.00,,2013-03-14 20:22:00,
2013-03-14 15:32:00,37.0,23.0,-100.00,North,5,1.0,5.0,58,0.00,,,0.00,,2013-03-14 20:32:00,
2013-03-14 15:42:00,37.0,25.0,-100.00,West,270,2.0,4.0,59,0.00,,,0.00,,2013-03-14 20:42:00,
2013-03-14 15:52:00,39.0,25.0,-100.00,NNE,20,1.0,4.0,54,0.00,,,0.00,,2013-03-14 20:52:00,
2013-03-14 16:02:00,38.0,25.0,-100.00,West,270,2.0,5.0,57,0.00,,,0.00,,2013-03-14 21:02:00,
2013-03-14 16:12:00,42.0,25.0,-100.00,SE,125,0.0,4.0,48,0.00,,,0.00,,2013-03-14 21:12:00,
2013-03-14 16:22:00,38.0,25.0,-100.00,East,90,3.0,4.0,57,0.00,,,0.00,,2013-03-14 21:22:00,
2013-03-14 16:32:00,38.0,25.0,-100.00,East,80,3.0,4.0,60,0.00,,,0.00,,2013-03-14 21:32:00,
2013-03-14 16:43:00,39.0,25.0,-100.00,South,175,4.0,6.0,55,0.00,,,0.00,,2013-03-14 21:43:00,
2013-03-14 16:52:00,38.0,25.0,-100.00,South,175,6.0,7.0,58,0.00,,,0.00,,2013-03-14 21:52:00,
2013-03-14 17:03:00,38.0,25.0,-100.00,SW,225,4.0,7.0,56,0.00,,,0.00,,2013-03-14 22:03:00,
2013-03-14 17:12:00,38.0,25.0,-100.00,SSW,195,4.0,7.0,56,0.00,,,0.00,,2013-03-14 22:12:00,
2013-03-14 17:23:00,38.0,25.0,-100.00,SW,225,6.0,9.0,56,0.00,,,0.00,,2013-03-14 22:23:00,
2013-03-14 17:33:00,38.0,25.0,-100.00,SSW,210,7.0,9.0,57,0.00,,,0.00,,2013-03-14 22:33:00,
2013-03-14 17:42:00,38.0,25.0,-100.00,SSW,210,7.0,9.0,57,0.00,,,0.00,,2013-03-14 22:42:00,
2013-03-14 17:52:00,38.0,25.0,-100.00,SSW,210,6.0,8.0,58,0.00,,,0.00,,2013-03-14 22:52:00,
2013-03-14 18:02:00,38.0,25.0,-100.00,SW,215,6.0,9.0,58,0.00,,,0.00,,2013-03-14 23:02:00,
2013-03-14 18:12:00,38.0,25.0,-100.00,SSW,210,6.0,7.0,58,0.00,,,0.00,,2013-03-14 23:12:00,
2013-03-14 18:22:00,37.0,25.0,-100.00,SSW,200,4.0,7.0,60,0.00,,,0.00,,2013-03-14 23:22:00,
2013-03-14 18:33:00,37.0,25.0,-100.00,SSW,205,6.0,8.0,60,0.00,,,0.00,,2013-03-14 23:33:00,
2013-03-14 18:42:00,37.0,25.0,-100.00,SSW,200,7.0,8.0,59,0.00,,,0.00,,2013-03-14 23:42:00,
2013-03-14 18:53:00,37.0,25.0,-100.00,SW,215,6.0,8.0,61,0.00,,,0.00,,2013-03-14 23:53:00,
2013-03-14 19:02:00,36.0,25.0,-100.00,SSW,210,4.0,9.0,63,0.00,,,0.00,,2013-03-15 00:02:00,
2013-03-14 19:12:00,36.0,25.0,-100.00,SW,215,6.0,9.0,63,0.00,,,0.00,,2013-03-15 00:12:00,
2013-03-14 19:22:00,36.0,25.0,-100.00,SW,220,6.0,8.0,64,0.00,,,0.00,,2013-03-15 00:22:00,
2013-03-14 19:32:00,35.0,25.0,-100.00,SW,220,5.0,7.0,65,0.00,,,0.00,,2013-03-15 00:32:00,
2013-03-14 19:42:00,35.0,25.0,-100.00,SW,220,4.0,7.0,66,0.00,,,0.00,,2013-03-15 00:42:00,
2013-03-14 19:52:00,35.0,25.0,-100.00,SW,215,3.0,4.0,67,0.00,,,0.00,,2013-03-15 00:52:00,
2013-03-14 20:02:00,34.0,25.0,-100.00,SW,230,3.0,6.0,69,0.00,,,0.00,,2013-03-15 01:02:00,
2013-03-14 20:11:00,34.0,25.0,-100.00,SSW,210,4.0,5.0,69,0.00,,,0.00,,2013-03-15 01:11:00,
2013-03-14 20:22:00,34.0,25.0,-100.00,SSW,210,6.0,7.0,69,0.00,,,0.00,,2013-03-15 01:22:00,
2013-03-14 20:32:00,33.0,25.0,-100.00,SSW,200,5.0,7.0,69,0.00,,,0.00,,2013-03-15 01:32:00,
2013-03-14 20:42:00,33.0,25.0,-100.00,SW,220,4.0,7.0,71,0.00,,,0.00,,2013-03-15 01:42:00,
2013-03-14 20:52:00,32.0,25.0,-100.00,SW,220,4.0,6.0,72,0.00,,,0.00,,2013-03-15 01:52:00,
2013-03-14 21:02:00,32.0,25.0,-100.00,SSW,200,5.0,7.0,72,0.00,,,0.00,,2013-03-15 02:02:00,
2013-03-14 21:12:00,32.0,23.0,-100.00,SSW,205,5.0,7.0,72,0.00,,,0.00,,2013-03-15 02:12:00,
2013-03-14 21:22:00,31.0,23.0,-100.00,SW,235,3.0,5.0,73,0.00,,,0.00,,2013-03-15 02:22:00,
2013-03-14 21:32:00,31.0,23.0,-100.00,SW,235,2.0,4.0,73,0.00,,,0.00,,2013-03-15 02:32:00,
2013-03-14 21:42:00,30.0,23.0,-100.00,WSW,255,1.0,2.0,74,0.00,,,0.00,,2013-03-15 02:42:00,
2013-03-14 21:52:00,29.0,23.0,-100.00,WNW,295,1.0,2.0,75,0.00,,,0.00,,2013-03-15 02:52:00,
2013-03-14 22:02:00,29.0,23.0,-100.00,West,280,1.0,2.0,77,0.00,,,0.00,,2013-03-15 03:02:00,
2013-03-14 22:12:00,29.0,23.0,-100.00,West,275,1.0,2.0,77,0.00,,,0.00,,2013-03-15 03:12:00,
2013-03-14 22:22:00,27.0,21.0,-100.00,West,265,1.0,2.0,79,0.00,,,0.00,,2013-03-15 03:22:00,
2013-03-14 22:33:00,28.0,23.0,-100.00,WNW,285,1.0,1.0,82,0.00,,,0.00,,2013-03-15 03:33:00,
2013-03-14 22:42:00,28.0,23.0,-100.00,West,270,1.0,2.0,81,0.00,,,0.00,,2013-03-15 03:42:00,
2013-03-14 22:52:00,28.0,23.0,-100.00,NNW,330,0.0,1.0,82,0.00,,,0.00,,2013-03-15 03:52:00,
2013-03-14 23:03:00,29.0,23.0,-100.00,NW,315,1.0,2.0,82,0.00,,,0.00,,2013-03-15 04:03:00,
2013-03-14 23:12:00,27.0,23.0,-100.00,West,260,1.0,2.0,81,0.00,,,0.00,,2013-03-15 04:12:00,
2013-03-14 23:22:00,29.0,25.0,-100.00,WNW,290,1.0,2.0,82,0.00,,,0.00,,2013-03-15 04:22:00,
2013-03-14 23:32:00,28.0,23.0,-100.00,WNW,290,1.0,2.0,82,0.00,,,0.00,,2013-03-15 04:32:00,
2013-03-14 23:42:00,29.0,23.0,-100.00,WNW,290,1.0,1.0,82,0.00,,,0.00,,2013-03-15 04:42:00,
2013-03-14 23:52:00,29.0,25.0,-100.00,West,270,1.0,3.0,81,0.00,,,0.00,,2013-03-15 04:52:00,